Location: Unspecified
(0.0000°N, 0.0000°E)
Time: 16:24:58
(UTC+00:00)

AD-A Canister/Altair 2 - Pass Details

Date: 05 May 2025
Orbit: 593 x 2295 km, 78.6° (Epoch: 12 May)

Event Time Altitude Azimuth Distance (km) Brightness Sun altitude
Rises 19:14:19 0° 191° (S) 5,872 11.5 -18.6°
Reaches altitude 10° 19:17:57 10° 192° (SSW) 4,877 11.0 -19.4°
Maximum altitude 19:31:06 74° 275° (W) 2,170 9.3 -22.6°
Drops below altitude 10° 19:41:45 10° 360° (N) 4,014 10.9 -25.1°
Sets 19:44:29 0° 2° (N) 4,808 11.3 -25.8°
